Location: Ladrillo (historical)
(32.8195°N, 117.2231°W)
Time: 02:54:20
(UTC+00:00)

Aureole 3 - Pass Details

Date: 29 October 2020
Orbit: 382 x 1232 km, 82.5° (Epoch: 26 November)

Event Time Altitude Azimuth Distance (km) Brightness Sun altitude
Rises 12:50:25 0° 354° (N) 2,915 6.9 -16.1°
Reaches altitude 10° 12:52:26 10° 355° (N) 2,117 6.2 -15.7°
Maximum altitude 12:57:12 86° 83° (E) 808 4.1 -14.7°
Drops below altitude 10° 13:03:18 10° 174° (S) 2,680 7.0 -13.4°
Sets 13:06:05 0° 174° (S) 3,752 7.7 -12.9°
